| time (UTC) | temp F | wind direction | speed MPH | gust MPH | rain 1hr in | rain 24hr in | rain mn in | humidity % | barometer mb |
| 20260831230403 | 73 | 13 | 0.0 | 1.0 | 0.00 | 0.00 | 0.00 | 75 | 1018.3 |
| 20260831230343 | 71 | 111 | 2.0 | 4.0 | 0.00 | 0.00 | 0.00 | 60 | 1019.7 |
| 20260831224850 | 71 | 77 | 2.0 | 4.0 | 0.00 | 0.00 | 0.00 | 60 | 1019.9 |
| 20260831224817 | 73 | 44 | 0.0 | 0.0 | 0.00 | 0.00 | 0.00 | 75 | 1018.5 |
| 20260831223409 | 73 | 311 | 0.0 | 3.0 | 0.00 | 0.00 | 0.00 | 74 | 1018.6 |
| 20260831223333 | 72 | 87 | 2.0 | 5.0 | 0.00 | 0.00 | 0.00 | 59 | 1020.1 |
| 20260831221848 | 74 | 150 | 1.0 | 4.0 | 0.00 | 0.00 | 0.00 | 74 | 1018.6 |
| 20260831221835 | 72 | 81 | 2.0 | 4.0 | 0.00 | 0.00 | 0.00 | 59 | 1020.0 |
| 20260831220336 | 72 | 141 | 2.0 | 4.0 | 0.00 | 0.00 | 0.00 | 58 | 1019.9 |
| 20260831220316 | 73 | 134 | 1.0 | 3.0 | 0.00 | 0.00 | 0.00 | 74 | 1018.5 |
| 20260831214840 | 73 | 87 | 1.0 | 4.0 | 0.00 | 0.00 | 0.00 | 57 | 1019.9 |
| 20260831214817 | 75 | 13 | 0.0 | 3.0 | 0.00 | 0.00 | 0.00 | 72 | 1018.4 |
| 20260831213334 | 74 | 88 | 1.0 | 9.0 | 0.00 | 0.00 | 0.00 | 56 | 1019.9 |
| 20260831213324 | 76 | 292 | 1.0 | 3.0 | 0.00 | 0.00 | 0.00 | 71 | 1018.6 |
| 20260831211841 | 75 | 153 | 1.0 | 7.0 | 0.00 | 0.00 | 0.00 | 53 | 1019.9 |
| 20260831211813 | 76 | 126 | 2.0 | 7.0 | 0.00 | 0.00 | 0.00 | 70 | 1018.5 |
| 20260831210425 | 75 | 109 | 4.0 | 8.0 | 0.00 | 0.00 | 0.00 | 69 | 1018.3 |
| 20260831210353 | 76 | 94 | 1.0 | 6.0 | 0.00 | 0.00 | 0.00 | 52 | 1019.7 |
| 20260831204913 | 75 | 135 | 1.0 | 4.0 | 0.00 | 0.00 | 0.00 | 53 | 1019.9 |
| 20260831204845 | 76 | 129 | 2.0 | 8.0 | 0.00 | 0.00 | 0.00 | 68 | 1018.5 |
| 20260831203421 | 75 | 98 | 2.0 | 5.0 | 0.00 | 0.00 | 0.00 | 51 | 1019.9 |
| 20260831203328 | 76 | 63 | 2.0 | 8.0 | 0.00 | 0.00 | 0.00 | 68 | 1018.6 |
| 20260831201844 | 76 | 104 | 2.0 | 5.0 | 0.00 | 0.00 | 0.00 | 49 | 1020.1 |
| 20260831201830 | 75 | 130 | 1.0 | 3.0 | 0.00 | 0.00 | 0.00 | 66 | 1018.5 |
| 20260831200435 | 76 | 189 | 2.0 | 6.0 | 0.00 | 0.00 | 0.00 | 50 | 1020.1 |
| 20260831200334 | 74 | 156 | 1.0 | 8.0 | 0.00 | 0.00 | 0.00 | 67 | 1018.8 |
| 20260831194900 | 77 | 127 | 2.0 | 9.0 | 0.00 | 0.00 | 0.00 | 46 | 1020.2 |
| 20260831194812 | 75 | 152 | 5.0 | 9.0 | 0.00 | 0.00 | 0.00 | 64 | 1018.9 |
| 20260831193414 | 78 | 204 | 3.0 | 8.0 | 0.00 | 0.00 | 0.00 | 48 | 1020.3 |
| 20260831193337 | 74 | 133 | 5.0 | 9.0 | 0.00 | 0.00 | 0.00 | 67 | 1018.9 |
| 20260831191825 | 77 | 271 | 1.0 | 5.0 | 0.00 | 0.00 | 0.00 | 47 | 1020.3 |
| 20260831191818 | 74 | 130 | 4.0 | 9.0 | 0.00 | 0.00 | 0.00 | 67 | 1019.1 |
| 20260831190404 | 74 | 142 | 4.0 | 9.0 | 0.00 | 0.00 | 0.00 | 68 | 1019.2 |
| 20260831190338 | 77 | 237 | 3.0 | 7.0 | 0.00 | 0.00 | 0.00 | 47 | 1020.5 |
| 20260831184851 | 74 | 140 | 5.0 | 8.0 | 0.00 | 0.00 | 0.00 | 66 | 1019.3 |
| 20260831184843 | 75 | 145 | 2.0 | 5.0 | 0.00 | 0.00 | 0.00 | 50 | 1020.6 |
| 20260831183443 | 75 | 264 | 2.0 | 5.0 | 0.00 | 0.00 | 0.00 | 50 | 1020.7 |
| 20260831183416 | 75 | 146 | 4.0 | 5.0 | 0.00 | 0.00 | 0.00 | 64 | 1019.4 |
| 20260831181828 | 76 | 193 | 3.0 | 7.0 | 0.00 | 0.00 | 0.00 | 48 | 1020.7 |
| 20260831181814 | 75 | 287 | 2.0 | 7.0 | 0.00 | 0.00 | 0.00 | 63 | 1019.4 |
| 20260831180359 | 76 | 124 | 3.0 | 5.0 | 0.00 | 0.00 | 0.00 | 47 | 1020.8 |
| 20260831180339 | 75 | 148 | 4.0 | 7.0 | 0.00 | 0.00 | 0.00 | 63 | 1019.5 |
| 20260831174903 | 75 | 274 | 1.0 | 4.0 | 0.00 | 0.00 | 0.00 | 51 | 1021.0 |
| 20260831174818 | 75 | 136 | 3.0 | 4.0 | 0.00 | 0.00 | 0.00 | 62 | 1019.7 |
| 20260831173411 | 75 | 288 | 1.0 | 3.0 | 0.00 | 0.00 | 0.00 | 48 | 1021.2 |
| 20260831173325 | 74 | 150 | 2.0 | 5.0 | 0.00 | 0.00 | 0.00 | 60 | 1019.9 |
| 20260831171933 | 74 | 132 | 2.0 | 5.0 | 0.00 | 0.00 | 0.00 | 60 | 1019.9 |
| 20260831171835 | 75 | 10 | 1.0 | 4.0 | 0.00 | 0.00 | 0.00 | 43 | 1021.2 |
| 20260831171829 | 74 | 132 | 2.0 | 5.0 | 0.00 | 0.00 | 0.00 | 60 | 1019.9 |
| 20260831170405 | 76 | 226 | 3.0 | 5.0 | 0.00 | 0.00 | 0.00 | 46 | 1021.3 |
| 20260831170330 | 74 | 141 | 4.0 | 5.0 | 0.00 | 0.00 | 0.00 | 58 | 1020.2 |
| 20260831164826 | 75 | 337 | 2.0 | 6.0 | 0.00 | 0.00 | 0.00 | 44 | 1021.5 |
| 20260831164824 | 73 | 150 | 4.0 | 7.0 | 0.00 | 0.00 | 0.00 | 57 | 1020.4 |
| 20260831163332 | 75 | 96 | 1.0 | 3.0 | 0.00 | 0.00 | 0.00 | 47 | 1021.6 |
| 20260831163329 | 76 | 127 | 3.0 | 4.0 | 0.00 | 0.00 | 0.00 | 52 | 1020.5 |
| 20260831161836 | 73 | 25 | 2.0 | 4.0 | 0.00 | 0.00 | 0.00 | 44 | 1021.7 |
| 20260831161828 | 77 | 129 | 1.0 | 2.0 | 0.00 | 0.00 | 0.00 | 49 | 1020.7 |
| 20260831160346 | 77 | 13 | 1.0 | 4.0 | 0.00 | 0.00 | 0.00 | 49 | 1020.7 |
| 20260831160336 | 73 | 301 | 3.0 | 5.0 | 0.00 | 0.00 | 0.00 | 44 | 1022.0 |
| 20260831154910 | 76 | 33 | 2.0 | 4.0 | 0.00 | 0.00 | 0.00 | 55 | 1020.8 |
| 20260831154841 | 73 | 314 | 3.0 | 4.0 | 0.00 | 0.00 | 0.00 | 48 | 1022.3 |
| 20260831153409 | 72 | 308 | 2.0 | 6.0 | 0.00 | 0.00 | 0.00 | 58 | 1022.3 |
| 20260831153326 | 72 | 63 | 2.0 | 4.0 | 0.00 | 0.00 | 0.00 | 60 | 1020.9 |
| 20260831151859 | 72 | 310 | 1.0 | 5.0 | 0.00 | 0.00 | 0.00 | 64 | 1022.2 |
| 20260831151824 | 73 | 323 | 2.0 | 3.0 | 0.00 | 0.00 | 0.00 | 64 | 1020.7 |
| 20260831150402 | 71 | 210 | 1.0 | 5.0 | 0.00 | 0.00 | 0.00 | 68 | 1022.4 |
| 20260831150348 | 74 | 138 | 1.0 | 4.0 | 0.00 | 0.00 | 0.00 | 61 | 1020.8 |
| 20260831144840 | 70 | 214 | 2.0 | 3.0 | 0.00 | 0.00 | 0.00 | 70 | 1022.3 |
| 20260831144823 | 75 | 76 | 2.0 | 3.0 | 0.00 | 0.00 | 0.00 | 63 | 1020.9 |
| 20260831143348 | 69 | 102 | 2.0 | 4.0 | 0.00 | 0.00 | 0.00 | 75 | 1022.5 |
| 20260831143324 | 73 | 25 | 1.0 | 4.0 | 0.00 | 0.00 | 0.00 | 67 | 1021.0 |
| 20260831141840 | 73 | 360 | 1.0 | 3.0 | 0.00 | 0.00 | 0.00 | 69 | 1021.0 |
| 20260831141827 | 68 | 283 | 1.0 | 4.0 | 0.00 | 0.00 | 0.00 | 80 | 1022.6 |
| 20260831140358 | 71 | 151 | 2.0 | 3.0 | 0.00 | 0.00 | 0.00 | 74 | 1021.0 |
| 20260831134838 | 65 | 224 | 1.0 | 3.0 | 0.00 | 0.00 | 0.00 | 86 | 1022.5 |
| 20260831134830 | 68 | 111 | 1.0 | 5.0 | 0.00 | 0.00 | 0.00 | 78 | 1021.0 |
| 20260831133407 | 64 | 280 | 2.0 | 4.0 | 0.00 | 0.00 | 0.00 | 87 | 1022.6 |
| 20260831133332 | 67 | 307 | 2.0 | 4.0 | 0.00 | 0.00 | 0.00 | 83 | 1021.1 |
| 20260831131924 | 65 | 167 | 2.0 | 4.0 | 0.00 | 0.00 | 0.00 | 87 | 1021.0 |
| 20260831131835 | 63 | 14 | 0.0 | 2.0 | 0.00 | 0.00 | 0.00 | 90 | 1022.4 |
| 20260831130336 | 61 | 272 | 2.0 | 3.0 | 0.00 | 0.00 | 0.00 | 90 | 1022.4 |
| 20260831130321 | 64 | 76 | 1.0 | 3.0 | 0.00 | 0.00 | 0.00 | 92 | 1021.1 |
| 20260831124842 | 61 | 237 | 0.0 | 0.0 | 0.00 | 0.00 | 0.00 | 90 | 1022.4 |
| 20260831123407 | 60 | 237 | 0.0 | 0.0 | 0.00 | 0.00 | 0.00 | 90 | 1022.5 |
| 20260831123349 | 60 | 27 | 1.0 | 4.0 | 0.00 | 0.00 | 0.00 | 98 | 1020.9 |
| 20260831121854 | 59 | 251 | 0.0 | 2.0 | 0.00 | 0.00 | 0.00 | 90 | 1022.4 |
| 20260831121827 | 60 | 10 | 2.0 | 5.0 | 0.00 | 0.00 | 0.00 | 97 | 1020.8 |
| 20260831120424 | 58 | 315 | 1.0 | 3.0 | 0.00 | 0.00 | 0.00 | 90 | 1022.3 |
| 20260831120400 | 59 | 39 | 1.0 | 3.0 | 0.00 | 0.00 | 0.00 | 98 | 1020.7 |
| 20260831114849 | 57 | 99 | 0.0 | 0.0 | 0.00 | 0.00 | 0.00 | 89 | 1022.2 |
| 20260831114832 | 59 | 21 | 0.0 | 5.0 | 0.00 | 0.00 | 0.00 | 98 | 1020.7 |
| 20260831113449 | 57 | 99 | 0.0 | 0.0 | 0.00 | 0.00 | 0.00 | 89 | 1022.0 |
| 20260831113319 | 59 | 5 | 1.0 | 2.0 | 0.00 | 0.00 | 0.00 | 97 | 1020.7 |
| 20260831111827 | 57 | 142 | 0.0 | 0.0 | 0.00 | 0.00 | 0.00 | 90 | 1021.9 |
| 20260831111820 | 59 | 5 | 0.0 | 2.0 | 0.00 | 0.00 | 0.00 | 97 | 1020.5 |
| 20260831110344 | 59 | 329 | 1.0 | 2.0 | 0.00 | 0.00 | 0.00 | 97 | 1020.2 |
| 20260831110331 | 57 | 142 | 0.0 | 2.0 | 0.00 | 0.00 | 0.00 | 89 | 1021.7 |
| 20260831104845 | 58 | 360 | 1.0 | 3.0 | 0.00 | 0.00 | 0.00 | 98 | 1020.2 |
| 20260831104832 | 56 | 35 | 0.0 | 0.0 | 0.00 | 0.00 | 0.00 | 87 | 1021.5 |
| 20260831103416 | 57 | 333 | 0.0 | 0.0 | 0.00 | 0.00 | 0.00 | 97 | 1020.1 |
| 20260831103342 | 57 | 35 | 0.0 | 0.0 | 0.00 | 0.00 | 0.00 | 87 | 1021.1 |
| 20260831101931 | 57 | 333 | 0.0 | 1.0 | 0.00 | 0.00 | 0.00 | 96 | 1020.1 |
| 20260831101828 | 57 | 333 | 0.0 | 1.0 | 0.00 | 0.00 | 0.00 | 96 | 1020.1 |
| 20260831101826 | 57 | 35 | 0.0 | 0.0 | 0.00 | 0.00 | 0.00 | 87 | 1021.3 |
| 20260831100419 | 57 | 333 | 0.0 | 1.0 | 0.00 | 0.00 | 0.00 | 96 | 1020.1 |
| 20260831100336 | 57 | 333 | 0.0 | 1.0 | 0.00 | 0.00 | 0.00 | 96 | 1020.1 |
| 20260831100329 | 58 | 35 | 0.0 | 0.0 | 0.00 | 0.00 | 0.00 | 87 | 1021.3 |
| 20260831094837 | 57 | 333 | 1.0 | 2.0 | 0.00 | 0.00 | 0.00 | 96 | 1020.0 |
| 20260831094833 | 58 | 35 | 0.0 | 0.0 | 0.00 | 0.00 | 0.00 | 87 | 1021.2 |
| 20260831093458 | 59 | 35 | 0.0 | 0.0 | 0.00 | 0.00 | 0.00 | 84 | 1021.0 |
| 20260831093315 | 57 | 333 | 2.0 | 2.0 | 0.00 | 0.00 | 0.00 | 96 | 1019.9 |
| 20260831091902 | 59 | 35 | 0.0 | 0.0 | 0.00 | 0.00 | 0.00 | 83 | 1020.9 |
| 20260831091815 | 58 | 333 | 1.0 | 2.0 | 0.00 | 0.00 | 0.00 | 96 | 1019.8 |
| 20260831090402 | 59 | 35 | 0.0 | 0.0 | 0.00 | 0.00 | 0.00 | 80 | 1020.8 |
| 20260831090313 | 58 | 333 | 0.0 | 2.0 | 0.00 | 0.00 | 0.00 | 96 | 1019.8 |
| 20260831084855 | 59 | 333 | 0.0 | 1.0 | 0.00 | 0.00 | 0.00 | 95 | 1019.6 |
| 20260831084853 | 60 | 35 | 0.0 | 0.0 | 0.00 | 0.00 | 0.00 | 79 | 1020.8 |
| 20260831083357 | 60 | 35 | 0.0 | 0.0 | 0.00 | 0.00 | 0.00 | 78 | 1020.8 |
| 20260831083329 | 59 | 333 | 2.0 | 2.0 | 0.00 | 0.00 | 0.00 | 95 | 1019.5 |
| 20260831081915 | 59 | 333 | 0.0 | 1.0 | 0.00 | 0.00 | 0.00 | 95 | 1019.4 |
| 20260831081837 | 60 | 35 | 0.0 | 0.0 | 0.00 | 0.00 | 0.00 | 77 | 1020.6 |
| 20260831080339 | 61 | 35 | 0.0 | 0.0 | 0.00 | 0.00 | 0.00 | 74 | 1020.5 |
| 20260831080316 | 60 | 333 | 0.0 | 1.0 | 0.00 | 0.00 | 0.00 | 95 | 1019.3 |
| 20260831074841 | 61 | 35 | 2.0 | 2.0 | 0.00 | 0.00 | 0.00 | 75 | 1020.4 |
| 20260831074834 | 60 | 333 | 0.0 | 0.0 | 0.00 | 0.00 | 0.00 | 94 | 1019.2 |
| 20260831073441 | 61 | 35 | 0.0 | 0.0 | 0.00 | 0.00 | 0.00 | 73 | 1020.5 |
| 20260831073337 | 60 | 333 | 0.0 | 1.0 | 0.00 | 0.00 | 0.00 | 94 | 1019.2 |
| 20260831071834 | 60 | 333 | 1.0 | 2.0 | 0.00 | 0.00 | 0.00 | 93 | 1018.9 |
| 20260831071828 | 62 | 355 | 1.0 | 3.0 | 0.00 | 0.00 | 0.00 | 71 | 1020.4 |
| 20260831070422 | 61 | 333 | 1.0 | 2.0 | 0.00 | 0.00 | 0.00 | 93 | 1018.8 |
| 20260831070339 | 63 | 20 | 0.0 | 2.0 | 0.00 | 0.00 | 0.00 | 69 | 1020.2 |
| 20260831064826 | 64 | 311 | 1.0 | 4.0 | 0.00 | 0.00 | 0.00 | 68 | 1020.2 |
| 20260831064819 | 62 | 333 | 1.0 | 2.0 | 0.00 | 0.00 | 0.00 | 92 | 1018.8 |
| 20260831063405 | 62 | 333 | 1.0 | 2.0 | 0.00 | 0.00 | 0.00 | 92 | 1018.8 |
| 20260831063339 | 64 | 25 | 1.0 | 8.0 | 0.00 | 0.00 | 0.00 | 70 | 1020.2 |
| 20260831061842 | 63 | 67 | 0.0 | 0.0 | 0.00 | 0.00 | 0.00 | 70 | 1020.2 |
| 20260831061823 | 62 | 333 | 1.0 | 2.0 | 0.00 | 0.00 | 0.00 | 92 | 1018.9 |
| 20260831060404 | 64 | 67 | 0.0 | 2.0 | 0.00 | 0.00 | 0.00 | 68 | 1020.3 |
| 20260831060344 | 62 | 333 | 0.0 | 1.0 | 0.00 | 0.00 | 0.00 | 91 | 1018.9 |
| 20260831054844 | 65 | 355 | 0.0 | 2.0 | 0.00 | 0.00 | 0.00 | 67 | 1020.2 |
| 20260831054817 | 63 | 333 | 1.0 | 2.0 | 0.00 | 0.00 | 0.00 | 90 | 1018.7 |
| 20260831053418 | 66 | 334 | 1.0 | 4.0 | 0.00 | 0.00 | 0.00 | 66 | 1020.0 |
| 20260831053319 | 64 | 333 | 0.0 | 0.0 | 0.00 | 0.00 | 0.00 | 87 | 1018.6 |
| 20260831051903 | 66 | 336 | 4.0 | 8.0 | 0.00 | 0.00 | 0.00 | 66 | 1019.9 |
| 20260831051835 | 65 | 333 | 0.0 | 2.0 | 0.00 | 0.00 | 0.00 | 87 | 1018.6 |
| 20260831050351 | 65 | 351 | 1.0 | 6.0 | 0.00 | 0.00 | 0.00 | 67 | 1019.9 |
| 20260831050316 | 64 | 333 | 1.0 | 2.0 | 0.00 | 0.00 | 0.00 | 87 | 1018.5 |
| 20260831044943 | 66 | 307 | 1.0 | 8.0 | 0.00 | 0.00 | 0.00 | 66 | 1019.8 |
| 20260831044901 | 66 | 307 | 1.0 | 8.0 | 0.00 | 0.00 | 0.00 | 66 | 1019.8 |
| 20260831044852 | 64 | 314 | 1.0 | 2.0 | 0.00 | 0.00 | 0.00 | 88 | 1018.4 |
| 20260831043359 | 64 | 317 | 0.0 | 2.0 | 0.00 | 0.00 | 0.00 | 88 | 1018.2 |
| 20260831043330 | 66 | 25 | 0.0 | 4.0 | 0.00 | 0.00 | 0.00 | 66 | 1019.7 |
| 20260831041922 | 66 | 325 | 1.0 | 4.0 | 0.00 | 0.00 | 0.00 | 65 | 1019.5 |
| 20260831041847 | 64 | 310 | 0.0 | 0.0 | 0.00 | 0.00 | 0.00 | 88 | 1018.2 |
| 20260831040340 | 66 | 282 | 1.0 | 5.0 | 0.00 | 0.00 | 0.00 | 65 | 1019.5 |
| 20260831040312 | 64 | 310 | 0.0 | 2.0 | 0.00 | 0.00 | 0.00 | 87 | 1018.1 |
| 20260831034833 | 65 | 336 | 0.0 | 1.0 | 0.00 | 0.00 | 0.00 | 86 | 1018.1 |
| 20260831034825 | 67 | 326 | 2.0 | 6.0 | 0.00 | 0.00 | 0.00 | 65 | 1019.5 |
| 20260831033334 | 66 | 39 | 2.0 | 3.0 | 0.00 | 0.00 | 0.00 | 65 | 1019.7 |
| 20260831033317 | 65 | 298 | 0.0 | 2.0 | 0.00 | 0.00 | 0.00 | 87 | 1018.3 |
| 20260831031954 | 66 | 20 | 2.0 | 4.0 | 0.00 | 0.00 | 0.00 | 65 | 1019.6 |
| 20260831031813 | 65 | 325 | 0.0 | 0.0 | 0.00 | 0.00 | 0.00 | 86 | 1018.2 |
| 20260831030416 | 67 | 76 | 2.0 | 3.0 | 0.00 | 0.00 | 0.00 | 64 | 1019.6 |
| 20260831030339 | 65 | 325 | 0.0 | 2.0 | 0.00 | 0.00 | 0.00 | 86 | 1018.2 |
| 20260831024928 | 67 | 5 | 0.0 | 1.0 | 0.00 | 0.00 | 0.00 | 82 | 1018.3 |
| 20260831024911 | 67 | 39 | 1.0 | 5.0 | 0.00 | 0.00 | 0.00 | 64 | 1019.6 |
| 20260831023359 | 68 | 329 | 1.0 | 7.0 | 0.00 | 0.00 | 0.00 | 63 | 1019.5 |
| 20260831023334 | 69 | 5 | 0.0 | 1.0 | 0.00 | 0.00 | 0.00 | 80 | 1018.3 |
| 20260831021919 | 68 | 337 | 3.0 | 5.0 | 0.00 | 0.00 | 0.00 | 62 | 1019.4 |
| 20260831021859 | 69 | 325 | 1.0 | 3.0 | 0.00 | 0.00 | 0.00 | 79 | 1018.1 |
| 20260831020440 | 69 | 354 | 1.0 | 5.0 | 0.00 | 0.00 | 0.00 | 61 | 1019.5 |
| 20260831020406 | 69 | 262 | 2.0 | 4.0 | 0.00 | 0.00 | 0.00 | 78 | 1018.1 |
| 20260831014911 | 70 | 277 | 1.0 | 4.0 | 0.00 | 0.00 | 0.00 | 77 | 1018.1 |
| 20260831014841 | 69 | 324 | 2.0 | 7.0 | 0.00 | 0.00 | 0.00 | 61 | 1019.5 |
| 20260831013352 | 69 | 266 | 3.0 | 7.0 | 0.00 | 0.00 | 0.00 | 60 | 1019.4 |
| 20260831013337 | 70 | 22 | 0.0 | 3.0 | 0.00 | 0.00 | 0.00 | 76 | 1018.2 |
| 20260831011836 | 70 | 279 | 1.0 | 6.0 | 0.00 | 0.00 | 0.00 | 76 | 1017.7 |
| 20260831010349 | 70 | 30 | 1.0 | 6.0 | 0.00 | 0.00 | 0.00 | 58 | 1019.3 |
| 20260831010343 | 70 | 326 | 2.0 | 6.0 | 0.00 | 0.00 | 0.00 | 75 | 1017.7 |
| 20260831004853 | 70 | 355 | 2.0 | 6.0 | 0.00 | 0.00 | 0.00 | 58 | 1019.4 |
| 20260831004846 | 70 | 296 | 2.0 | 6.0 | 0.00 | 0.00 | 0.00 | 74 | 1017.7 |
| 20260831003402 | 71 | 337 | 2.0 | 6.0 | 0.00 | 0.00 | 0.00 | 56 | 1019.1 |
| 20260831003313 | 71 | 306 | 2.0 | 4.0 | 0.00 | 0.00 | 0.00 | 74 | 1017.5 |
| 20260831001853 | 72 | 327 | 1.0 | 3.0 | 0.00 | 0.00 | 0.00 | 74 | 1017.2 |
| 20260831001848 | 71 | 351 | 5.0 | 10.0 | 0.00 | 0.00 | 0.00 | 56 | 1018.7 |
| 20260831000407 | 72 | 309 | 3.0 | 5.0 | 0.00 | 0.00 | 0.00 | 74 | 1016.9 |
| 20260831000347 | 72 | 191 | 3.0 | 11.0 | 0.00 | 0.00 | 0.00 | 56 | 1018.5 |
| 20260831000325 | 72 | 309 | 3.0 | 5.0 | 0.00 | 0.00 | 0.00 | 74 | 1016.9 |
| 20260830234907 | 72 | 290 | 2.0 | 5.0 | 0.00 | 0.00 | 0.00 | 75 | 1016.5 |
| 20260830234835 | 72 | 317 | 2.0 | 9.0 | 0.00 | 0.00 | 0.00 | 58 | 1018.2 |
| 20260830233404 | 72 | 241 | 4.0 | 8.0 | 0.00 | 0.00 | 0.00 | 58 | 1018.1 |
| 20260830233336 | 72 | 334 | 1.0 | 3.0 | 0.00 | 0.00 | 0.00 | 77 | 1016.5 |
| 20260830231855 | 72 | 270 | 0.0 | 2.0 | 0.00 | 0.00 | 0.00 | 77 | 1016.4 |
| 20260830231831 | 72 | 341 | 0.0 | 2.0 | 0.00 | 0.00 | 0.00 | 60 | 1018.1 |